Vorticity
6 9 8 13 15 21 17 10 5 10 7 5 3 5 -4 6 5 -1 12 7 16 15 20 15 7 9 8 18 26 17 13 6 19 11 6 1 4 10 -1 12 -3 -12 31 9
19 20 18 13 13 12 14 11 16 16 13 6 1 -1 5 9 7 6 8 30 21 2 10 16 18 29 16 27 29 28 15 11 5 18 11 10 11 17 12 -0 26 -3 29 22
23 34 38 37 30 21 17 16 13 8 14 21 16 13 9 9 2 11 6 25 9 22 -2 11 22 16 20 19 17 43 31 10 13 8 13 12 13 -5 1 3 -9 0 18 11
7 14 22 30 35 38 35 28 18 18 13 11 11 15 7 6 0 4 17 -1 19 5 10 18 13 21 25 23 23 16 47 20 12 11 6 11 6 3 7 13 6 14 12 16
12 12 17 12 25 15 11 40 31 15 19 14 7 8 10 3 5 3 3 26 21 4 44 0 6 37 41 39 24 13 24 52 17 24 6 10 10 4 3 7 17 -3 7 8
4 15 25 23 23 28 31 34 29 23 15 11 8 4 15 2 3 19 31 1 17 16 20 26 6 15 16 8 55 36 18 31 30 21 16 10 3 15 -11 -10 -15 27 4 10
17 3 10 6 30 28 25 29 20 16 10 13 6 14 12 9 3 13 25 20 11 14 13 17 9 -6 -16 24 33 24 39 6 23 15 11 25 5 20 7 12 -6 -18 39 4
16 15 3 3 2 14 9 -2 21 10 5 14 15 12 9 17 16 0 16 -5 9 -5 10 31 23 25 -9 5 -5 -17 28 -21 49 26 -4 9 -10 7 29 24 -2 30 -11 -3
14 10 26 16 13 4 8 12 16 15 13 8 13 8 8 20 -6 6 -4 30 -5 9 7 12 14 1 27 24 2 22 22 36 70 -7 17 9 1 12 -34 3 16 38 29 11
6 10 20 20 21 17 8 7 16 17 11 6 1 0 11 10 10 4 5 17 14 -5 -8 28 4 34 24 40 1 -1 20 50 26 -6 -21 28 7 7 -32 20 -1 -2 21 15
6 8 5 9 19 31 17 11 7 8 11 9 1 2 3 1 6 8 28 10 -19 -1 15 20 28 12 13 11 8 58 21 16 4 41 27 -7 3 -21 3 -4 22 3 -5 15
4 9 4 6 5 4 14 36 46 14 11 10 -1 2 1 2 8 7 13 7 3 23 9 -6 18 9 -5 -7 -5 18 7 10 17 21 8 32 35 21 23 42 4 17 17 20
2 1 7 7 2 4 4 5 6 27 46 36 22 11 1 7 10 9 9 4 3 15 5 7 11 20 4 7 4 15 20 26 13 13 25 1 32 17 2 14 9 -12 6 7
3 5 4 5 7 6 5 6 6 6 5 13 28 57 47 15 3 5 11 5 11 -5 0 13 8 4 12 13 -4 -2 0 5 22 14 23 9 -3 7 14 12 -18 -0 -6 11
4 1 5 6 5 8 5 6 6 6 6 6 5 8 27 54 36 17 3 8 6 12 -1 -7 6 10 5 5 2 13 2 -4 -3 2 10 13 15 20 16 4 15 10 -11 21
5 2 2 2 5 5 4 4 6 7 8 10 7 6 8 8 40 61 38 10 5 10 9 2 6 1 6 2 5 9 4 5 1 3 -1 4 -1 14 9 16 29 18 16 -8
8 8 -0 3 1 3 6 1 1 5 4 5 6 9 7 10 10 13 47 65 36 8 8 11 7 3 -0 -2 -1 6 5 7 9 6 -2 2 5 0 3 9 2 3 6 7
6 6 10 5 2 3 2 5 2 2 1 1 5 6 7 7 6 9 11 11 30 66 62 37 17 11 4 3 5 1 -3 -2 2 3 6 4 3 4 1 -0 -0 2 4 3
7 9 6 9 7 3 5 2 4 5 2 3 5 1 5 8 7 4 5 3 6 8 8 22 58 73 57 33 12 5 4 4 -0 1 2 1 2 3 3 2 2 2 2 3
5 4 7 9 7 10 4 3 0 5 3 2 2 3 2 -2 -3 1 4 4 8 6 3 6 8 8 3 12 46 82 77 38 7 4 4 2 -1 10 35 32 49 40 35 41
6 9 6 6 9 8 8 9 4 0 4 6 1 1 -2 0 2 3 1 3 4 3 2 4 5 4 6 10 10 13 8 8 11 9 3 6 9 5 3 -6 -9 -5 3 -4
11 7 7 10 9 5 11 10 10 10 5 0 2 6 4 4 1 0 -2 -2 0 -1 1 2 3 2 2 2 2 6 5 4 3 5 5 3 2 -0 -0 1 2 1 -1 1
18 16 11 6 6 9 8 9 9 8 9 7 3 2 2 5 6 1 1 4 -1 -1 4 3 -1 2 3 3 3 3 4 4 5 5 5 5 6 5 3 3 5 5 4 3
5 6 14 20 6 2 1 9 8 11 9 7 8 7 4 3 3 5 7 5 2 -1 -2 2 2 5 5 2 -1 -0 0 1 1 1 3 4 3 3 4 5 5 3 2 4
16 10 9 18 11 18 14 6 3 10 11 8 8 7 8 8 5 3 3 3 6 8 7 4 2 2 3 2 3 4 3 3 4 4 3 3 2 2 1 2 3 3 2 4
3 4 6 17 19 18 13 19 15 5 7 9 10 10 7 7 7 6 6 4 4 3 4 6 6 6 6 3 2 2 3 3 2 2 3 4 4 4 4 5 5 4 4 4
Height
5658 5651 5646 5646 5643 5642 5642 5644 5646 5649 5650 5656 5658 5662 5662 5660 5657 5656 5655 5654 5651 5647 5645 5641 5641 5643 5646 5649 5658 5672 5680 5694 5707 5720 5732 5742 5750 5759 5767 5776 5783 5790 5795 5800
5650 5642 5636 5631 5629 5630 5631 5634 5636 5641 5644 5649 5651 5656 5657 5654 5653 5650 5648 5647 5644 5641 5640 5637 5634 5631 5633 5634 5639 5647 5664 5676 5692 5709 5722 5731 5742 5752 5762 5769 5776 5782 5786 5789
5643 5636 5627 5621 5617 5618 5619 5621 5628 5635 5637 5642 5648 5651 5650 5649 5649 5645 5646 5642 5639 5636 5633 5630 5626 5622 5621 5625 5630 5633 5642 5659 5676 5694 5707 5719 5730 5739 5749 5758 5765 5769 5775 5780
5643 5634 5625 5617 5612 5609 5609 5612 5621 5627 5632 5639 5644 5646 5643 5647 5647 5643 5643 5638 5634 5633 5627 5624 5621 5615 5614 5616 5619 5623 5628 5642 5661 5679 5692 5706 5722 5733 5743 5751 5755 5762 5767 5771
5643 5633 5624 5617 5611 5607 5607 5606 5612 5621 5629 5636 5640 5641 5641 5644 5644 5642 5640 5634 5632 5628 5620 5620 5617 5612 5608 5608 5610 5617 5622 5630 5646 5666 5683 5696 5711 5722 5730 5737 5742 5750 5755 5761
5643 5634 5626 5618 5612 5608 5605 5606 5611 5620 5628 5634 5636 5637 5641 5644 5644 5641 5638 5633 5631 5626 5619 5618 5616 5612 5607 5606 5609 5615 5625 5630 5644 5657 5673 5688 5702 5712 5720 5726 5734 5740 5747 5754
5645 5638 5632 5623 5618 5614 5612 5614 5617 5623 5628 5632 5634 5640 5642 5643 5643 5641 5639 5634 5631 5626 5621 5618 5619 5615 5613 5608 5613 5615 5627 5633 5642 5652 5668 5683 5693 5704 5713 5718 5723 5733 5735 5741
5650 5643 5636 5631 5628 5625 5624 5625 5626 5628 5631 5634 5638 5641 5643 5644 5643 5640 5639 5637 5631 5630 5624 5620 5619 5618 5618 5619 5624 5627 5631 5638 5641 5652 5666 5678 5690 5698 5707 5709 5713 5719 5721 5732
5658 5650 5643 5639 5637 5635 5633 5632 5632 5633 5635 5637 5640 5643 5644 5643 5643 5642 5641 5639 5635 5633 5632 5631 5628 5626 5624 5627 5628 5627 5629 5631 5640 5653 5665 5677 5683 5691 5696 5701 5707 5708 5714 5724
5667 5660 5652 5648 5644 5641 5639 5639 5638 5637 5638 5640 5641 5643 5643 5642 5644 5644 5642 5640 5638 5637 5636 5636 5634 5631 5631 5629 5632 5630 5631 5634 5642 5657 5667 5673 5682 5689 5694 5697 5703 5707 5709 5715
5675 5669 5664 5657 5652 5648 5646 5644 5642 5642 5642 5642 5643 5644 5644 5644 5643 5644 5644 5643 5641 5641 5638 5638 5637 5636 5636 5636 5637 5635 5638 5646 5656 5662 5669 5675 5680 5684 5691 5696 5701 5705 5705 5710
5684 5678 5672 5667 5662 5658 5655 5651 5647 5646 5646 5645 5644 5646 5644 5644 5643 5644 5644 5643 5644 5642 5641 5640 5639 5639 5640 5639 5642 5643 5646 5650 5655 5661 5665 5670 5677 5684 5687 5691 5694 5697 5700 5705
5693 5687 5683 5677 5673 5667 5664 5661 5656 5653 5649 5647 5646 5646 5642 5642 5643 5642 5643 5643 5643 5644 5643 5644 5644 5643 5643 5644 5645 5648 5650 5654 5656 5660 5665 5669 5676 5678 5679 5682 5685 5690 5694 5698
5699 5695 5689 5684 5679 5675 5671 5667 5663 5659 5656 5652 5648 5643 5640 5638 5638 5640 5642 5642 5643 5645 5646 5646 5646 5646 5646 5645 5647 5651 5651 5653 5656 5657 5662 5667 5670 5675 5677 5681 5684 5687 5690 5692
5703 5700 5696 5692 5687 5682 5678 5673 5669 5665 5662 5658 5654 5647 5642 5636 5633 5634 5637 5640 5642 5644 5645 5647 5647 5647 5646 5647 5649 5650 5649 5653 5655 5657 5659 5663 5667 5672 5675 5677 5679 5681 5684 5685
5707 5704 5700 5697 5694 5689 5684 5680 5675 5671 5667 5663 5659 5654 5648 5642 5636 5632 5632 5635 5638 5641 5644 5645 5646 5648 5647 5647 5646 5648 5651 5652 5655 5657 5660 5663 5666 5669 5672 5674 5676 5675 5678 5679
5707 5705 5702 5700 5697 5693 5691 5686 5682 5678 5673 5668 5663 5659 5654 5649 5644 5640 5634 5631 5632 5636 5639 5642 5644 5645 5644 5645 5647 5649 5650 5651 5653 5655 5658 5660 5663 5666 5667 5669 5670 5671 5673 5674
5706 5704 5703 5701 5698 5696 5694 5690 5687 5683 5679 5675 5670 5665 5661 5656 5651 5647 5642 5638 5635 5633 5633 5635 5638 5640 5642 5642 5643 5644 5646 5647 5648 5649 5651 5654 5657 5659 5660 5662 5665 5666 5668 5670
5705 5703 5701 5700 5698 5697 5693 5691 5689 5685 5684 5680 5676 5672 5668 5664 5659 5655 5651 5648 5645 5642 5639 5637 5636 5635 5636 5638 5639 5640 5641 5643 5646 5649 5651 5652 5653 5656 5657 5658 5659 5659 5659 5659
5702 5700 5699 5697 5695 5695 5693 5691 5689 5686 5684 5682 5680 5677 5674 5670 5667 5664 5661 5657 5654 5651 5649 5648 5645 5642 5640 5638 5636 5635 5636 5639 5642 5645 5647 5648 5648 5650 5651 5651 5651 5651 5649 5650
5698 5696 5694 5693 5691 5691 5690 5689 5687 5686 5687 5681 5680 5678 5676 5674 5672 5669 5666 5663 5660 5658 5656 5654 5652 5649 5647 5645 5643 5642 5642 5642 5642 5644 5645 5646 5647 5648 5650 5650 5648 5649 5647 5646
5692 5691 5690 5688 5687 5686 5685 5685 5684 5683 5681 5680 5678 5677 5676 5675 5673 5670 5668 5666 5664 5662 5660 5657 5655 5654 5653 5652 5651 5649 5647 5647 5647 5648 5648 5648 5647 5648 5647 5646 5645 5643 5642 5640
5687 5685 5683 5683 5681 5678 5678 5678 5678 5678 5677 5676 5675 5674 5673 5672 5671 5670 5669 5666 5664 5662 5661 5660 5658 5657 5656 5655 5653 5652 5651 5650 5650 5649 5648 5647 5646 5645 5644 5642 5642 5640 5638 5635
5680 5676 5675 5673 5673 5670 5670 5671 5670 5670 5669 5669 5669 5669 5668 5667 5666 5665 5665 5665 5664 5662 5660 5658 5657 5656 5655 5654 5653 5652 5650 5649 5647 5646 5645 5643 5642 5640 5639 5637 5635 5632 5630 5627
5673 5669 5665 5667 5665 5664 5663 5663 5662 5662 5662 5661 5661 5660 5660 5660 5659 5658 5658 5657 5657 5657 5656 5655 5653 5652 5650 5649 5648 5647 5645 5643 5641 5640 5638 5636 5634 5632 5629 5626 5624 5621 5617 5614
5663 5662 5659 5657 5655 5655 5655 5654 5653 5653 5652 5653 5653 5652 5651 5651 5651 5651 5650 5650 5649 5648 5647 5646 5646 5645 5644 5642 5641 5639 5638 5636 5634 5632 5630 5627 5625 5622 5619 5615 5611 5608 5604 5599